#timestamp,LO_Frequency,Hit 
1498705215.2,286047017.1,N
1498705235.9,286047016.9,N
1498705255.7,286047015.0,N
1498705275.6,286047016.8,N
1498705295.4,286047016.6,N
1498705315.2,286047018.8,N
1498705335.0,286047017.8,N
1498705336.0,286047017.8,N
1498705355.8,286047017.9,N
1498705375.6,286047017.6,N
1498705395.4,286047018.5,N
1498705415.3,286047017.9,N
1498705435.1,286047017.7,N
1498705455.8,286047018.5,N
1498705475.7,286047016.9,N
1498705495.5,286047015.9,N
1498705515.3,286047018.2,N
1498705535.2,286047017.9,N
1498705555.9,286047018.6,N
1498705575.7,286047015.8,N
1498705595.6,286047015.3,N
1498705615.4,286047013.9,N
1498705635.2,286047012.6,N
1498705655.0,286047016.8,N
1498705656.0,286047016.8,N
1498705675.8,286047018.5,N
1498705695.6,286047017.4,N
1498705715.4,286047019.9,N
1498705735.3,286047016.2,N
1498705755.1,286047015.9,N
1498705775.8,286047020.1,N
1498705795.7,286047019.5,N
1498705815.5,286047021.4,N
1498705835.3,286047021.7,N
1498705855.2,286047019.3,N
1498705875.9,286047020.3,N
1498705895.7,286047020.3,N
1498705915.6,286047018.4,N
1498705935.4,286047017.9,N
1498705955.2,286047021.5,N
1498705975.1,286047021.8,N
1498705976.0,286047021.8,N
1498705995.8,286047020.8,N
1498706015.6,286047020.3,N
1498706035.4,286047016.2,N
1498706055.3,286047016.0,N
1498706075.1,286047017.8,N
1498706095.8,286047019.7,N
1498706115.7,286047019.8,N
1498706135.5,286047016.4,N
1498706155.3,286047014.5,N
1498706175.2,286047016.2,N
1498706195.9,286047017.4,N
1498706215.7,286047016.2,N
1498706235.6,286047016.8,N
1498706255.4,286047013.7,N
1498706275.2,286047013.7,N
1498706295.1,286047011.0,N
1498706296.0,286047011.0,N
1498706315.8,286047009.9,N
1498706335.6,286047007.8,N
1498706355.5,286047007.9,N
1498706375.3,286047008.9,N
1498706395.1,286047006.3,N
1498706415.8,286047008.3,N
1498706435.7,286047012.3,N
1498706455.5,286047013.6,N
1498706475.3,286047014.0,N
1498706495.2,286047012.4,N
1498706515.9,286047009.3,N
1498706535.7,286047010.6,N
1498706555.6,286047010.5,N
1498706575.4,286047012.0,N
1498706595.2,286047011.5,N
1498706615.0,286047013.1,N
1498706616.0,286047013.1,N
1498706635.8,286047011.2,N
1498706655.6,286047009.6,N
1498706675.4,286047010.7,N
1498706695.3,286047008.9,N
1498706715.1,286047012.2,N
1498706735.8,286047013.5,N
1498706755.7,286047013.7,N
1498706775.5,286047012.3,N
1498706795.3,286047011.2,N
1498706815.2,286047015.9,N
1498706835.9,286047015.7,N
1498706855.7,286047016.0,N
1498706875.6,286047020.3,N
1498706895.4,286047018.8,N
1498706915.2,286047017.0,N
1498706935.1,286047016.8,N
1498706936.0,286047016.8,N
1498706955.8,286047018.3,N
1498706975.6,286047017.7,N
1498706995.4,286047018.9,N
1498707015.3,286047021.3,N
1498707035.1,286047023.1,N
1498707055.8,286047022.9,N
1498707075.7,286047024.7,N
1498707095.5,286047026.1,N
1498707115.3,286047028.2,N
1498707135.2,286047025.3,N
1498707155.9,286047025.4,N
1498707175.7,286047026.3,N
1498707195.6,286047027.9,N
1498707215.4,286047025.6,N
1498707235.2,286047028.4,N
1498707255.0,286047025.2,N
1498707256.0,286047025.2,N
1498707275.8,286047023.6,N
1498707295.6,286047023.5,N
1498707315.4,286047023.2,N
1498707335.3,286047024.6,N
1498707355.1,286047025.9,N
1498707375.8,286047028.0,N
1498707395.7,286047025.0,N
1498707415.5,286047024.5,N
1498707435.3,286047026.6,N
1498707455.2,286047025.6,N
1498707475.9,286047026.4,N
1498707495.7,286047028.4,N
1498707515.6,286047028.3,N
1498707535.4,286047028.4,N
1498707555.2,286047024.0,N
1498707575.0,286047023.0,N
1498707575.9,286047023.0,N
1498707595.8,286047022.7,N
1498707615.6,286047023.2,N
1498707635.4,286047024.6,N
1498707655.3,286047025.3,N
1498707675.1,286047027.8,N
1498707695.8,286047028.2,N
1498707715.7,286047027.8,N
1498707735.5,286047027.8,N
1498707755.3,286047028.0,N
1498707775.2,286047029.9,N
1498707795.9,286047028.7,N
1498707815.7,286047031.6,N
1498707835.5,286047029.1,N
1498707855.4,286047027.2,N
1498707875.2,286047029.2,N
1498707895.0,286047029.6,N
1498707895.9,286047029.6,N
1498707915.8,286047027.9,N
1498707935.6,286047025.7,N
1498707955.4,286047025.8,N
1498707975.3,286047023.1,N
1498707995.1,286047023.0,N
1498708015.8,286047022.8,N
1498708035.7,286047022.1,N
1498708055.5,286047023.4,N
1498708075.3,286047022.7,N
1498708095.2,286047022.0,N
1498708115.9,286047019.4,N
1498708135.7,286047018.6,N
1498708155.6,286047015.2,N
1498708175.4,286047014.8,N
1498708195.2,286047017.0,N
1498708215.1,286047016.2,N
1498708216.0,286047016.2,N
1498708235.8,286047016.5,N
1498708255.6,286047016.0,N
1498708275.4,286047018.0,N
1498708295.3,286047018.6,N
1498708315.1,286047017.7,N
1498708335.8,286047015.8,N
1498708355.7,286047016.1,N
1498708375.5,286047018.2,N
1498708395.3,286047018.0,N
1498708415.2,286047017.9,N
1498708435.9,286047020.3,N
1498708455.7,286047021.4,N
1498708475.6,286047023.4,N
1498708495.4,286047022.6,N
1498708515.2,286047024.3,N
1498708535.1,286047024.0,N
1498708536.0,286047024.0,N
1498708555.8,286047024.8,N
1498708575.6,286047025.1,N
1498708595.4,286047024.7,N
1498708615.3,286047023.8,N
1498708635.1,286047023.8,N
1498708655.8,286047024.5,N
1498708675.7,286047024.5,N
1498708695.5,286047023.7,N
1498708715.3,286047024.3,N
1498708735.2,286047026.8,N
1498708755.9,286047025.3,N
1498708775.7,286047028.4,N
1498708795.6,286047024.1,N
